Location: Unspecified
(58.7730°N, 5.8460°E)
Time: 23:23:50
(UTC+02:00)

Cosmos 1674 - Visible Passes

Search period start: 24 April 2014 00:00
Search period end: 04 May 2014 00:00
Orbit: 516 x 546 km, 82.5° (Epoch: 24 April)

Date Brightness Start Highest point End Pass type
(mag) Time Alt. Az. Time Alt. Az. Time Alt. Az.
01 May 5.6 04:46:21 10° ESE 04:48:47 16° E 04:51:12 10° NE visible
02 May 5.6 04:36:15 10° ESE 04:38:33 15° E 04:40:52 10° NE visible
03 May 5.6 04:26:08 10° ESE 04:28:19 15° E 04:30:30 10° NE visible
